STARLINK-3291 (50175 NORAD) Tracking and Keplerian Element Data

This shows tracking and keplerian element data for the satellite.

Feedback or suggestion? Click here.




ElementValue
Catalog50175
NameSTARLINK-3291
Epoch Orbit130
Epoch Day140.58334491
Epoch Year2022
RAAN5.0568
Inclination53.2177
Eccentricity0.0001561
Argument of Perigee55.0588
Mean Anonmoly291.4467
Mean Motion15.08840451
Decay Rate2.548E-05
L11 50175U 21125V 22140.58334491 .00002548 00000+0 17814-3 0 9997
L22 50175 53.2177 5.0568 0001561 55.0588 291.4467 15.08840451 1306

Live tracking and technical data element details for STARLINK-3291 (NORAD 50175). STARLINK-3291 can be tracked NOW for your location showing map with azimuth and elevation plus other details from your city location.

Track the satellite on the map from your city or location and see movement details for azimuth, elevation, latitude, longitude, range, height, and movement on the map or in text.







IsCatalogInMostPopularTable: catalog: 50175, numindb: 21
Update: records affected: 1



GetName: 50175 STARLINK-3291

Hit Count: updated at: Mon, 23 May 2022 20:36:07 GMT